Вернуться в каталог

NOAA 17 DEB

АктивенPO
NORAD 48178·DEBRIS·🇺🇸 United States

Запущен Jun 24, 2002 с Vandenberg Space Force Base

Loading…

Ближайшие Пролёты (ближайшие 24 часа)

TLE

СвежийSource: Space-Track

Эпоха: Sep 14, 2026, 00:05 UTC

1 48178U 02032T   26257.00365334  .00004478  00000-0  10562-2 0  9990
2 48178  98.8599 278.5861 0007745 352.7164   7.3917 14.54762772286903

Отслеживайте NOAA 17 DEB в реальном времени с AllMySat

Download on the App Store